Time,TemperatureF,DewpointF,PressureIn,WindDirection,WindDirectionDegrees,WindSpeedMPH,WindSpeedGustMPH,Humidity,HourlyPrecipIn,Conditions,Clouds,dailyrainin,SolarRadiationWatts/m^2,SoftwareType,DateUTC
2013-06-10 00:10:00,60.1,58.0,30.15,South,182,0.0,-999.0,92,-99.99,,,0.00,0,weatherlink.com 1.10,2013-06-10 04:10:00,
2013-06-10 00:25:00,59.9,58.0,30.15,South,182,0.0,-999.0,93,-99.99,,,0.00,0,weatherlink.com 1.10,2013-06-10 04:25:00,
2013-06-10 00:40:00,59.8,58.0,30.15,South,182,0.0,-999.0,93,-99.99,,,0.00,0,weatherlink.com 1.10,2013-06-10 04:40:00,
2013-06-10 00:55:00,59.7,58.0,30.14,South,182,0.0,-999.0,93,-99.99,,,0.00,0,weatherlink.com 1.10,2013-06-10 04:55:00,
2013-06-10 01:10:00,59.2,57.0,30.15,South,182,0.0,-999.0,93,-99.99,,,0.00,0,weatherlink.com 1.10,2013-06-10 05:10:00,
2013-06-10 01:25:00,59.0,57.0,30.16,South,182,0.0,-999.0,93,-99.99,,,0.00,0,weatherlink.com 1.10,2013-06-10 05:25:00,
2013-06-10 01:40:00,58.7,57.0,30.16,South,182,0.0,-999.0,93,-99.99,,,0.00,0,weatherlink.com 1.10,2013-06-10 05:40:00,
2013-06-10 01:55:00,58.7,57.0,30.15,South,182,0.0,-999.0,94,-99.99,,,0.00,0,weatherlink.com 1.10,2013-06-10 05:55:00,
2013-06-10 02:10:00,58.8,57.0,30.15,South,182,0.0,-999.0,94,-99.99,,,0.00,0,weatherlink.com 1.10,2013-06-10 06:10:00,
2013-06-10 02:25:00,58.9,57.0,30.15,South,182,0.0,-999.0,94,-99.99,,,0.00,0,weatherlink.com 1.10,2013-06-10 06:25:00,
2013-06-10 02:40:00,59.2,58.0,30.14,South,182,0.0,-999.0,94,-99.99,,,0.00,0,weatherlink.com 1.10,2013-06-10 06:40:00,
2013-06-10 02:55:00,59.3,58.0,30.14,South,182,0.0,-999.0,94,-99.99,,,0.00,0,weatherlink.com 1.10,2013-06-10 06:55:00,
2013-06-10 03:10:00,59.3,58.0,30.14,South,182,0.0,-999.0,94,-99.99,,,0.00,0,weatherlink.com 1.10,2013-06-10 07:10:00,
2013-06-10 03:25:00,59.0,57.0,30.14,South,182,0.0,-999.0,94,-99.99,,,0.00,0,weatherlink.com 1.10,2013-06-10 07:25:00,
2013-06-10 03:40:00,59.1,57.0,30.13,South,182,0.0,-999.0,94,-99.99,,,0.00,0,weatherlink.com 1.10,2013-06-10 07:40:00,
2013-06-10 03:55:00,58.9,57.0,30.14,South,182,0.0,-999.0,94,-99.99,,,0.00,0,weatherlink.com 1.10,2013-06-10 07:55:00,
2013-06-10 04:10:00,58.7,57.0,30.14,South,182,0.0,-999.0,94,-99.99,,,0.00,0,weatherlink.com 1.10,2013-06-10 08:10:00,
2013-06-10 04:25:00,59.0,57.0,30.14,South,182,0.0,-999.0,94,-99.99,,,0.00,0,weatherlink.com 1.10,2013-06-10 08:25:00,
2013-06-10 04:40:00,59.1,57.0,30.13,South,182,0.0,-999.0,94,-99.99,,,0.00,0,weatherlink.com 1.10,2013-06-10 08:40:00,
2013-06-10 04:55:00,59.2,58.0,30.13,South,182,0.0,-999.0,94,-99.99,,,0.00,0,weatherlink.com 1.10,2013-06-10 08:55:00,
2013-06-10 05:10:00,59.3,58.0,30.13,South,182,0.0,-999.0,94,-99.99,,,0.00,0,weatherlink.com 1.10,2013-06-10 09:10:00,
2013-06-10 05:25:00,59.5,58.0,30.13,South,182,0.0,-999.0,94,-99.99,,,0.00,0,weatherlink.com 1.10,2013-06-10 09:25:00,
2013-06-10 05:40:00,59.7,58.0,30.13,South,182,0.0,-999.0,94,-99.99,,,0.00,7,weatherlink.com 1.10,2013-06-10 09:40:00,
2013-06-10 05:55:00,59.7,58.0,30.13,South,182,0.0,-999.0,94,-99.99,,,0.00,14,weatherlink.com 1.10,2013-06-10 09:55:00,
2013-06-10 06:10:00,59.7,58.0,30.13,South,182,0.0,-999.0,94,-99.99,,,0.00,32,weatherlink.com 1.10,2013-06-10 10:10:00,
2013-06-10 06:25:00,60.1,58.0,30.13,South,182,0.0,-999.0,94,-99.99,,,0.00,53,weatherlink.com 1.10,2013-06-10 10:25:00,
2013-06-10 06:40:00,60.5,59.0,30.13,South,182,0.0,-999.0,94,-99.99,,,0.00,67,weatherlink.com 1.10,2013-06-10 10:40:00,
2013-06-10 06:55:00,60.9,59.0,30.14,South,182,0.0,-999.0,94,-99.99,,,0.00,70,weatherlink.com 1.10,2013-06-10 10:55:00,
2013-06-10 07:10:00,61.2,60.0,30.13,South,182,0.0,-999.0,94,-99.99,,,0.00,44,weatherlink.com 1.10,2013-06-10 11:10:00,
2013-06-10 07:25:00,61.4,59.0,30.13,South,182,0.0,-999.0,93,-99.99,,,0.00,70,weatherlink.com 1.10,2013-06-10 11:25:00,
2013-06-10 07:40:00,61.7,60.0,30.12,South,182,0.0,-999.0,93,-99.99,,,0.00,72,weatherlink.com 1.10,2013-06-10 11:40:00,
2013-06-10 07:55:00,62.0,60.0,30.12,South,182,0.0,-999.0,92,-99.99,,,0.00,40,weatherlink.com 1.10,2013-06-10 11:55:00,
2013-06-10 08:10:00,62.2,60.0,30.12,South,182,0.0,-999.0,92,-99.99,,,0.00,44,weatherlink.com 1.10,2013-06-10 12:10:00,
2013-06-10 08:25:00,62.2,60.0,30.12,South,182,0.0,-999.0,92,-99.99,,,0.00,74,weatherlink.com 1.10,2013-06-10 12:25:00,
2013-06-10 08:40:00,62.5,60.0,30.12,South,182,0.0,-999.0,92,-99.99,,,0.00,139,weatherlink.com 1.10,2013-06-10 12:40:00,
2013-06-10 08:55:00,63.1,61.0,30.12,South,182,0.0,-999.0,92,-99.99,,,0.00,98,weatherlink.com 1.10,2013-06-10 12:55:00,
2013-06-10 09:10:00,63.7,61.0,30.12,South,182,0.0,-999.0,91,-99.99,,,0.00,72,weatherlink.com 1.10,2013-06-10 13:10:00,
2013-06-10 09:25:00,64.0,61.0,30.12,South,182,0.0,-999.0,90,-99.99,,,0.00,84,weatherlink.com 1.10,2013-06-10 13:25:00,
2013-06-10 09:40:00,64.9,62.0,30.12,South,182,0.0,-999.0,90,-99.99,,,0.00,125,weatherlink.com 1.10,2013-06-10 13:40:00,
2013-06-10 09:55:00,65.7,62.0,30.12,South,182,0.0,-999.0,89,-99.99,,,0.00,151,weatherlink.com 1.10,2013-06-10 13:55:00,
2013-06-10 10:10:00,66.6,63.0,30.11,South,182,0.0,-999.0,88,-99.99,,,0.00,188,weatherlink.com 1.10,2013-06-10 14:10:00,
2013-06-10 10:25:00,67.4,64.0,30.11,South,182,0.0,-999.0,88,-99.99,,,0.00,243,weatherlink.com 1.10,2013-06-10 14:25:00,
2013-06-10 10:40:00,68.4,63.0,30.11,South,182,0.0,-999.0,84,-99.99,,,0.00,188,weatherlink.com 1.10,2013-06-10 14:40:00,
2013-06-10 10:55:00,68.7,64.0,30.11,South,182,0.0,-999.0,84,-99.99,,,0.00,264,weatherlink.com 1.10,2013-06-10 14:55:00,
2013-06-10 11:10:00,69.3,64.0,30.10,South,182,0.0,-999.0,83,-99.99,,,0.00,359,weatherlink.com 1.10,2013-06-10 15:10:00,
2013-06-10 11:25:00,70.1,64.0,30.10,East,94,0.0,-999.0,81,-99.99,,,0.00,446,weatherlink.com 1.10,2013-06-10 15:25:00,
2013-06-10 11:40:00,71.4,65.0,30.10,East,93,0.0,-999.0,81,-99.99,,,0.00,557,weatherlink.com 1.10,2013-06-10 15:40:00,
2013-06-10 11:55:00,70.8,65.0,30.09,East,89,3.0,-999.0,81,-99.99,,,0.00,364,weatherlink.com 1.10,2013-06-10 15:55:00,
2013-06-10 12:10:00,70.5,64.0,30.09,East,81,2.0,-999.0,81,-99.99,,,0.00,309,weatherlink.com 1.10,2013-06-10 16:10:00,
2013-06-10 12:25:00,70.9,65.0,30.08,ENE,65,1.0,-999.0,81,-99.99,,,0.00,366,weatherlink.com 1.10,2013-06-10 16:25:00,
2013-06-10 12:40:00,71.0,65.0,30.08,SE,141,4.0,-999.0,81,-99.99,,,0.00,237,weatherlink.com 1.10,2013-06-10 16:40:00,
2013-06-10 12:55:00,70.3,65.0,30.07,ESE,118,2.0,-999.0,83,-99.99,,,0.00,98,weatherlink.com 1.10,2013-06-10 16:55:00,
2013-06-10 13:10:00,70.1,65.0,30.07,SE,130,0.0,-999.0,84,-99.99,,,0.00,163,weatherlink.com 1.10,2013-06-10 17:10:00,
2013-06-10 13:25:00,70.4,65.0,30.06,East,94,4.0,-999.0,83,-99.99,,,0.00,111,weatherlink.com 1.10,2013-06-10 17:25:00,
2013-06-10 13:40:00,70.2,66.0,30.06,South,169,0.0,-999.0,85,-99.99,,,0.00,51,weatherlink.com 1.10,2013-06-10 17:40:00,
2013-06-10 13:55:00,69.3,66.0,30.06,SSE,168,0.0,-999.0,88,-99.99,,,0.01,105,weatherlink.com 1.10,2013-06-10 17:55:00,
2013-06-10 14:10:00,68.6,66.0,30.05,West,271,6.0,-999.0,90,-99.99,,,0.02,146,weatherlink.com 1.10,2013-06-10 18:10:00,
2013-06-10 14:25:00,67.4,65.0,30.05,SSW,213,6.0,-999.0,91,-99.99,,,0.03,74,weatherlink.com 1.10,2013-06-10 18:25:00,
2013-06-10 14:40:00,66.7,64.0,30.05,SW,216,5.0,-999.0,92,-99.99,,,0.03,37,weatherlink.com 1.10,2013-06-10 18:40:00,
2013-06-10 14:55:00,66.2,64.0,30.05,SE,124,4.0,-999.0,92,-99.99,,,0.04,32,weatherlink.com 1.10,2013-06-10 18:55:00,
2013-06-10 15:10:00,66.0,64.0,30.04,SSW,205,0.0,-999.0,93,-99.99,,,0.08,44,weatherlink.com 1.10,2013-06-10 19:10:00,
2013-06-10 15:25:00,65.8,64.0,30.03,SSW,196,0.0,-999.0,94,-99.99,,,0.16,67,weatherlink.com 1.10,2013-06-10 19:25:00,
2013-06-10 15:40:00,65.7,64.0,30.02,SW,230,1.0,-999.0,94,-99.99,,,0.19,65,weatherlink.com 1.10,2013-06-10 19:40:00,
2013-06-10 15:55:00,65.3,64.0,30.02,ESE,105,5.0,-999.0,94,-99.99,,,0.22,86,weatherlink.com 1.10,2013-06-10 19:55:00,
2013-06-10 16:10:00,64.7,63.0,30.00,SSE,155,5.0,-999.0,93,-99.99,,,0.24,114,weatherlink.com 1.10,2013-06-10 20:10:00,
2013-06-10 16:25:00,64.5,63.0,30.00,SSW,195,3.0,-999.0,94,-99.99,,,0.25,84,weatherlink.com 1.10,2013-06-10 20:25:00,
2013-06-10 16:40:00,64.1,62.0,30.00,East,94,7.0,-999.0,93,-99.99,,,0.26,97,weatherlink.com 1.10,2013-06-10 20:40:00,
2013-06-10 16:55:00,63.6,62.0,29.99,ESE,114,5.0,-999.0,93,-99.99,,,0.28,70,weatherlink.com 1.10,2013-06-10 20:55:00,
2013-06-10 17:10:00,63.2,61.0,29.99,East,90,0.0,-999.0,93,-99.99,,,0.31,51,weatherlink.com 1.10,2013-06-10 21:10:00,
2013-06-10 17:25:00,62.8,61.0,29.99,SSE,159,1.0,-999.0,94,-99.99,,,0.33,72,weatherlink.com 1.10,2013-06-10 21:25:00,
2013-06-10 17:40:00,62.6,61.0,29.98,SSE,148,10.0,-999.0,94,-99.99,,,0.34,40,weatherlink.com 1.10,2013-06-10 21:40:00,
2013-06-10 17:55:00,62.5,61.0,29.97,ESE,115,4.0,-999.0,94,-99.99,,,0.37,33,weatherlink.com 1.10,2013-06-10 21:55:00,
2013-06-10 18:10:00,62.3,61.0,29.96,SE,127,2.0,-999.0,95,-99.99,,,0.45,28,weatherlink.com 1.10,2013-06-10 22:10:00,
2013-06-10 18:25:00,62.0,60.0,29.96,SSW,192,6.0,-999.0,94,-99.99,,,0.46,14,weatherlink.com 1.10,2013-06-10 22:25:00,
2013-06-10 18:40:00,62.0,60.0,29.96,South,175,6.0,-999.0,94,-99.99,,,0.46,12,weatherlink.com 1.10,2013-06-10 22:40:00,
2013-06-10 18:55:00,61.6,60.0,29.95,East,88,0.0,-999.0,94,-99.99,,,0.47,9,weatherlink.com 1.10,2013-06-10 22:55:00,
2013-06-10 19:10:00,61.5,60.0,29.94,SSW,192,0.0,-999.0,94,-99.99,,,0.48,7,weatherlink.com 1.10,2013-06-10 23:10:00,
2013-06-10 19:25:00,61.3,60.0,29.95,NW,306,0.0,-999.0,94,-99.99,,,0.55,0,weatherlink.com 1.10,2013-06-10 23:25:00,
2013-06-10 19:40:00,61.1,60.0,29.95,West,267,3.0,-999.0,95,-99.99,,,0.64,5,weatherlink.com 1.10,2013-06-10 23:40:00,
2013-06-10 19:55:00,60.9,60.0,29.94,SW,217,0.0,-999.0,95,-99.99,,,0.66,0,weatherlink.com 1.10,2013-06-10 23:55:00,
2013-06-10 20:10:00,60.7,59.0,29.94,South,190,0.0,-999.0,95,-99.99,,,0.67,0,weatherlink.com 1.10,2013-06-11 00:10:00,
2013-06-10 20:25:00,60.7,59.0,29.93,SSE,150,0.0,-999.0,95,-99.99,,,0.68,0,weatherlink.com 1.10,2013-06-11 00:25:00,
2013-06-10 20:40:00,60.7,59.0,29.93,ESE,115,0.0,-999.0,95,-99.99,,,0.68,0,weatherlink.com 1.10,2013-06-11 00:40:00,
2013-06-10 20:55:00,60.8,59.0,29.92,SSW,209,0.0,-999.0,95,-99.99,,,0.69,0,weatherlink.com 1.10,2013-06-11 00:55:00,
2013-06-10 21:10:00,60.7,59.0,29.92,SSW,209,2.0,-999.0,95,-99.99,,,0.69,0,weatherlink.com 1.10,2013-06-11 01:10:00,
2013-06-10 21:25:00,60.6,60.0,29.91,West,275,2.0,-999.0,96,-99.99,,,0.70,0,weatherlink.com 1.10,2013-06-11 01:25:00,
2013-06-10 21:40:00,60.5,59.0,29.91,SSE,150,10.0,-999.0,95,-99.99,,,0.70,0,weatherlink.com 1.10,2013-06-11 01:40:00,
2013-06-10 21:55:00,60.7,59.0,29.90,South,181,2.0,-999.0,95,-99.99,,,0.70,0,weatherlink.com 1.10,2013-06-11 01:55:00,
2013-06-10 22:10:00,60.7,59.0,29.90,West,259,0.0,-999.0,95,-99.99,,,0.72,0,weatherlink.com 1.10,2013-06-11 02:10:00,
2013-06-10 22:25:00,60.7,59.0,29.89,WSW,257,2.0,-999.0,95,-99.99,,,0.75,0,weatherlink.com 1.10,2013-06-11 02:25:00,
2013-06-10 22:40:00,60.5,59.0,29.88,North,5,0.0,-999.0,96,-99.99,,,0.91,0,weatherlink.com 1.10,2013-06-11 02:40:00,
2013-06-10 22:55:00,60.4,59.0,29.88,West,259,0.0,-999.0,96,-99.99,,,1.01,0,weatherlink.com 1.10,2013-06-11 02:55:00,
2013-06-10 23:10:00,60.4,59.0,29.88,ESE,122,1.0,-999.0,96,-99.99,,,1.04,0,weatherlink.com 1.10,2013-06-11 03:10:00,
2013-06-10 23:25:00,60.5,59.0,29.87,West,259,4.0,-999.0,95,-99.99,,,1.05,0,weatherlink.com 1.10,2013-06-11 03:25:00,
2013-06-10 23:40:00,60.5,59.0,29.86,SW,232,2.0,-999.0,96,-99.99,,,1.05,0,weatherlink.com 1.10,2013-06-11 03:40:00,
2013-06-10 23:55:00,60.4,59.0,29.85,West,263,1.0,-999.0,96,-99.99,,,1.05,0,weatherlink.com 1.10,2013-06-11 03:55:00,